Погода в Фэрбанксе

США     64°49′43″N   147°40′09″W
темп.,
°C
ветер,
м/с
пор.,
м/с
влажн.,
%
обл.,
%
осадки,
мм/ч
давл.,
гПа
погр.,
м
21 октября, чт
чт2101:00−3св009387 0.0 99810
04:00−3юв1193100 0.0 99922
07:00−3в119389 0.0 99834
10:00−2вюв118683 0.0 99784
13:00−1ссз0075100 0.0 997189
16:000всв1178100 0.0 99685
19:00−3ссв1187100 0.0 99522
22:00−3св22886 0.0 99340
22 октября, пт
пт2201:00−4св22908 0.0 99249
04:00−4ссв22896 0.0 99041
07:00−5св238655 0.0 98860
10:00−4ссв2484100 0.0 98684
13:00−1ссв2473100 0.0 984154
16:000св1181100 0.0 98316
19:00−2ссв1191100 0.0 98312
22:00−3ссв229392 0.0 98239
23 октября, сб
сб2301:00−3ссв2392100 0.0 98344
04:00−3ссв119143 0.0 98428
07:00−4с119312 0.0 98512
10:00−4св019313 0.0 98714
13:00−1юз0079100 0.0 988139
16:00−1зюз118119 0.0 98926
19:00−3юз119374 0.0 99110
22:00−4ю019597 0.0 99411
24 октября, вс
вс2401:00−5вюв119699 0.0 99615
04:00−5в119668 0.0 99829
07:00−6всв119798 0.0 100014
10:00−5св119572 0.0 100129
13:00−3св018580 0.0 1001174
16:00−2ююз018497 0.0 100191
19:00−4зюз0193100 0.0 100110
22:00−4ююз0094100 0.0 100113
25 октября, пн
пн2501:00−4ююв009599 0.0 100113
04:00−4ююв0095100 0.0 100027
07:00−4юв0095100 0.1 99947
10:00−4ююв0095100 0.1 99957
13:00−2ююз0191100 0.2 999200
16:00−2юз119389 0.5 999185
19:00−3юз119891 0.3 99940
22:00−4юз129884 0.5 100060